Regional Weather Roundup
Issued by NWS

Home | Current Version | Previous Version | Graphics & Text | Print | Product List | Glossary On
Versions: 1 2 3 4 5 6 7 8 9 10 11 12 13 14 15 16 17 18 19 20 21 22 23 24 25 26 27 28
000
ASUS45 KPSR 261910
RWRAZ

ARIZONA HOURLY REGIONAL WEATHER ROUNDUP
NATIONAL WEATHER SERVICE PHOENIX AZ
1200 PM MST SUN FEB 26 2017

NOTE: FAIR INDICATES FEW OR NO CLOUDS BELOW 12,000 FEET WITH NO
SIGNIFICANT WEATHER AND/OR OBSTRUCTIONS TO VISIBILITY.

AZZ001>003-036-262000-
NORTHWEST ARIZONA

CITY           SKY/WX    TMP DP  RH WIND       PRES   REMARKS
BULLHEAD CITY  PTSUNNY   59  28  31 CALM      29.94F
KINGMAN        CLOUDY    51  15  23 W15G22    29.92S
$$

AZZ004>008-015-016-018-262000-
NORTH CENTRAL ARIZONA

CITY           SKY/WX    TMP DP  RH WIND       PRES   REMARKS
GRAND CANYON   CLOUDY    39  21  48 S12       29.91F WCI  32
WILLIAMS       CLOUDY    39  16  38 S12G20    29.92F WCI  32
PRESCOTT       CLOUDY    40  27  59 VRB5      29.97S
FLAGSTAFF      CLOUDY    35  17  47 VRB7      29.93S WCI  29
PAYSON         CLOUDY    46  18  31 VRB7      29.98F
PAGE           SUNNY     45  14  28 VRB5      29.92F
$$

AZZ009>014-017-262000-
NORTHEAST ARIZONA

CITY           SKY/WX    TMP DP  RH WIND       PRES   REMARKS
WINSLOW        CLOUDY    47  19  33 W10G21    29.95F
SAINT JOHNS    CLOUDY    45  16  31 NW12G21   29.92F
WINDOW ROCK    CLOUDY    35  22  58 NW9       29.95S WCI  28
SHOW LOW       CLOUDY    39  10  30 SW20G26   29.96R WCI  30
$$

AZZ023-262000-
GREATER PHOENIX AREA

CITY           SKY/WX    TMP DP  RH WIND       PRES   REMARKS
PHOENIX        PTSUNNY   63  25  23 NW9       29.93R
BUCKEYE        PTSUNNY   61  28  29 SW6       29.95S
GLENDALE       PTSUNNY   63  32  31 S9G17     29.96R
LUKE AFB       PTSUNNY   63  29  28 S9        29.92F
DEER VALLEY    CLOUDY    61  25  25 S3        29.93S
SCOTTSDALE     CLOUDY    61  28  28 S7        29.95R
MESA-FALCON    PTSUNNY  N/A N/A N/A VRB7      29.92R
MESA-GATEWAY   PTSUNNY   63  27  25 MISG      29.94F
CHANDLER       SUNNY     64  25  22 VRB5      29.94R
$$

AZZ027-028-262000-
SOUTHWEST MARICOPA COUNTY AND PINAL COUNTY

CITY           SKY/WX    TMP DP  RH WIND       PRES   REMARKS
CASA GRANDE    NOT AVBL
$$

AZZ503-504-507>509-262000-
SOUTHEAST ARIZONA

CITY           SKY/WX    TMP DP  RH WIND       PRES   REMARKS
TUCSON         CLOUDY    63  10  12 W14       29.96S
DAVIS-MONTHAN  CLOUDY    64  13  13 NW8G21    29.95S
RYAN FIELD     PTSUNNY   64  14  14 W8G16     29.96S
NOGALES        CLOUDY    59   4  11 SW14      29.98S
SIERRA VISTA   CLOUDY    61   6  11 SW15G24   29.97S
DOUGLAS        CLOUDY    62  12  14 SW29G37   29.94F
SAFFORD        CLOUDY    60  15  17 NW13      29.94R
$$

AZZ020-021-025-026-031-262000-
SOUTHWEST ARIZONA

CITY           SKY/WX    TMP DP  RH WIND       PRES   REMARKS
YUMA           MOSUNNY   66  35  31 NW15      29.95F
$$

CAZ031-033-041-043-047-048-061-262000-
SOUTHERN CALIFORNIA

CITY           SKY/WX    TMP DP  RH WIND       PRES   REMARKS
DOWNTOWN L.A.  LGT RAIN  54  44  69 CALM      30.02S
L.A. AIRPORT   CLOUDY    53  47  79 E10       30.02S
SAN DIEGO      PTSUNNY   57  47  69 S10       30.05F
BURBANK        CLOUDY    51  41  68 VRB7      30.01S
ONTARIO        CLOUDY    51  43  74 E3        30.02R
RIVERSIDE      LGT RAIN  51  45  79 CALM      30.02S
PALM SPRINGS   SUNNY     63  43  48 VRB6      29.95F
EL CENTRO NAS  SUNNY     66  36  32 SW13G21   29.97F
IMPERIAL         N/A    N/A N/A N/A MISG      29.95F
BLYTHE         SUNNY     64  34  32 N8        29.93F
NEEDLES        SUNNY     59  29  31 CALM      29.94F
$$

NVZ020-UTZ003-262000-
SOUTHERN NEVADA-UTAH

CITY           SKY/WX    TMP DP  RH WIND       PRES   REMARKS
LAS VEGAS      MOSUNNY   54  18  24 NE7       29.93R
SALT LAKE CITY PTSUNNY   34  16  47 S16       29.90F WCI  24
$$

NMZ009-TXZ055-262000-
NEW MEXICO-WEST TEXAS

CITY           SKY/WX    TMP DP  RH WIND       PRES   REMARKS
ALBUQUERQUE    PTSUNNY   44  19  36 VRB3      29.94F
EL PASO        PTSUNNY   64   8  11 SW20      29.92F
$$


........................KEY........................
SKY/WX - SKY CONDITION/WEATHER
TMP    - TEMPERATURE IN FAHRENHEIT
DP     - DEW POINT IN FAHRENHEIT
RH     - RELATIVE HUMIDITY IN PERCENT
WIND   - DIRECTION AND SPEED IN MILES PER HOUR (MPH)
VRB    - VARIABLE WIND DIRECTION
PRES   - MEAN SEA LEVEL PRESSURE IN INCHES OF MERCURY
         F - FALLING PRESSURE   R - RISING PRESSURE
         S - STEADY PRESSURE
VSB    - VISIBILITY IN MILES
HX     - HEAT INDEX IN FAHRENHEIT
WCI    - WIND CHILL INDEX IN FAHRENHEIT
TC     - TEMPERATURE IN CELSIUS WHICH IS ALSO KNOWN AS
         TEMPERATURE IN CENTIGRADE
AFB    - AIR FORCE BASE
         LUKE AFB IS LUKE AIR FORCE BASE
         DAVIS-MONTHAN IS DAVIS-MONTHAN AIR FORCE BASE
NAS    - NAVAL AIR STATION
         EL CENTRO NAS IS EL CENTRO NAVAL AIR STATION
N/A    - NOT AVAILABLE





USA.gov is the U.S. government's official web portal to all federal, state and local government web resources and services.